| time (UTC) | temp F | wind direction | speed knots | gust knots | rain 1hr in | rain 24hr in | rain mn in | humidity % | barometer mb |
| 20260507153718 | 53 | 95 | 0.0 | 3.5 | 0.00 | 0.00 | 0.00 | 81 | 1020.8 |
| 20260507152222 | 52 | 208 | 0.0 | 1.7 | 0.00 | 0.00 | 0.00 | 83 | 1020.7 |
| 20260507150743 | 52 | 118 | 1.7 | 4.3 | 0.00 | 0.00 | 0.00 | 83 | 1020.7 |
| 20260507145223 | 51 | 357 | 0.9 | 3.5 | 0.00 | 0.00 | 0.00 | 83 | 1020.7 |
| 20260507143741 | 51 | 70 | 0.9 | 3.5 | 0.00 | 0.00 | 0.00 | 83 | 1020.6 |
| 20260507142257 | 51 | 256 | 0.9 | 2.6 | 0.00 | 0.00 | 0.00 | 83 | 1020.6 |
| 20260507140719 | 51 | 170 | 0.0 | 0.9 | 0.00 | 0.00 | 0.00 | 84 | 1020.4 |
| 20260507135242 | 51 | 170 | 0.0 | 0.0 | 0.00 | 0.00 | 0.00 | 84 | 1020.3 |
| 20260507133729 | 50 | 185 | 0.0 | 0.0 | 0.00 | 0.00 | 0.00 | 84 | 1020.3 |
| 20260507132214 | 51 | 185 | 0.0 | 0.0 | 0.00 | 0.00 | 0.00 | 85 | 1020.2 |
| 20260507130731 | 51 | 189 | 0.0 | 0.0 | 0.00 | 0.00 | 0.00 | 85 | 1020.3 |
| 20260507125223 | 51 | 189 | 0.0 | 0.0 | 0.00 | 0.00 | 0.00 | 85 | 1020.3 |
| 20260507123745 | 51 | 189 | 0.0 | 0.0 | 0.00 | 0.00 | 0.00 | 84 | 1020.3 |
| 20260507122240 | 51 | 189 | 0.0 | 0.0 | 0.00 | 0.00 | 0.00 | 85 | 1020.3 |
| 20260507120722 | 51 | 189 | 0.0 | 0.0 | 0.00 | 0.00 | 0.00 | 86 | 1020.4 |
| 20260507115224 | 52 | 189 | 0.0 | 0.0 | 0.00 | 0.00 | 0.00 | 85 | 1020.5 |
| 20260507113720 | 52 | 189 | 0.0 | 0.0 | 0.00 | 0.00 | 0.00 | 84 | 1020.6 |
| 20260507112241 | 52 | 189 | 0.0 | 0.0 | 0.00 | 0.00 | 0.00 | 84 | 1020.7 |
| 20260507110730 | 52 | 189 | 0.0 | 0.0 | 0.00 | 0.00 | 0.00 | 85 | 1020.7 |
| 20260507105223 | 52 | 189 | 0.0 | 0.0 | 0.00 | 0.00 | 0.00 | 84 | 1020.8 |
| 20260507103741 | 52 | 189 | 0.0 | 0.0 | 0.00 | 0.00 | 0.00 | 85 | 1020.8 |
| 20260507102224 | 52 | 189 | 0.0 | 0.0 | 0.00 | 0.00 | 0.00 | 85 | 1020.8 |
| 20260507100739 | 52 | 189 | 0.0 | 0.0 | 0.00 | 0.00 | 0.00 | 85 | 1020.9 |
| 20260507095223 | 52 | 189 | 0.0 | 0.0 | 0.00 | 0.00 | 0.00 | 86 | 1021.1 |
| 20260507093738 | 53 | 189 | 0.0 | 0.0 | 0.00 | 0.00 | 0.00 | 86 | 1021.3 |
| 20260507092218 | 53 | 189 | 0.0 | 0.0 | 0.00 | 0.00 | 0.00 | 86 | 1021.3 |
| 20260507090732 | 53 | 189 | 0.0 | 0.0 | 0.00 | 0.00 | 0.00 | 86 | 1021.4 |
| 20260507085217 | 53 | 189 | 0.0 | 0.0 | 0.00 | 0.00 | 0.00 | 86 | 1021.3 |
| 20260507083725 | 53 | 189 | 0.0 | 0.0 | 0.00 | 0.00 | 0.00 | 86 | 1021.3 |
| 20260507082218 | 53 | 189 | 0.0 | 0.0 | 0.00 | 0.00 | 0.00 | 86 | 1021.3 |
| 20260507080726 | 53 | 189 | 0.0 | 0.0 | 0.00 | 0.00 | 0.00 | 86 | 1021.3 |
| 20260507075218 | 53 | 189 | 0.0 | 0.0 | 0.00 | 0.00 | 0.00 | 85 | 1021.3 |
| 20260507073733 | 53 | 189 | 0.0 | 0.9 | 0.00 | 0.00 | 0.00 | 84 | 1021.3 |
| 20260507072226 | 53 | 189 | 0.0 | 0.9 | 0.00 | 0.00 | 0.00 | 85 | 1021.3 |
| 20260507070742 | 53 | 189 | 0.0 | 1.7 | 0.00 | 0.00 | 0.00 | 85 | 1021.3 |
| 20260507065229 | 53 | 189 | 0.0 | 1.7 | 0.00 | 0.00 | 0.00 | 85 | 1021.3 |
| 20260507063727 | 54 | 189 | 0.0 | 1.7 | 0.00 | 0.00 | 0.00 | 85 | 1021.3 |
| 20260507062243 | 54 | 143 | 0.0 | 1.7 | 0.00 | 0.00 | 0.00 | 86 | 1021.3 |
| 20260507060725 | 54 | 143 | 0.9 | 1.7 | 0.00 | 0.00 | 0.00 | 86 | 1021.3 |
| 20260507055238 | 54 | 144 | 0.9 | 3.5 | 0.00 | 0.00 | 0.00 | 86 | 1021.3 |
| 20260507053727 | 54 | 152 | 0.0 | 1.7 | 0.00 | 0.00 | 0.00 | 86 | 1021.3 |
| 20260507052222 | 54 | 152 | 0.0 | 1.7 | 0.00 | 0.00 | 0.00 | 85 | 1021.3 |
| 20260507050727 | 55 | 152 | 0.0 | 1.7 | 0.00 | 0.00 | 0.00 | 84 | 1021.3 |
| 20260507045229 | 55 | 153 | 0.9 | 3.5 | 0.00 | 0.00 | 0.00 | 84 | 1021.3 |
| 20260507043725 | 56 | 141 | 0.9 | 3.5 | 0.00 | 0.00 | 0.00 | 83 | 1021.2 |
| 20260507042215 | 56 | 122 | 0.9 | 2.6 | 0.00 | 0.00 | 0.00 | 83 | 1021.0 |
| 20260507040726 | 56 | 171 | 0.9 | 2.6 | 0.00 | 0.00 | 0.00 | 83 | 1020.8 |
| 20260507035217 | 57 | 180 | 1.7 | 3.5 | 0.00 | 0.00 | 0.00 | 83 | 1020.7 |
| 20260507033719 | 58 | 116 | 0.9 | 1.7 | 0.00 | 0.00 | 0.00 | 83 | 1020.5 |
| 20260507032241 | 58 | 81 | 0.0 | 1.7 | 0.00 | 0.00 | 0.00 | 83 | 1020.3 |
| 20260507030721 | 59 | 52 | 0.0 | 2.6 | 0.00 | 0.00 | 0.00 | 80 | 1020.2 |
| 20260507025215 | 59 | 101 | 0.0 | 1.7 | 0.00 | 0.00 | 0.00 | 82 | 1020.1 |
| 20260507023742 | 60 | 94 | 0.9 | 1.7 | 0.00 | 0.00 | 0.00 | 81 | 1019.8 |
| 20260507022215 | 60 | 112 | 0.0 | 1.7 | 0.00 | 0.00 | 0.00 | 80 | 1019.8 |
| 20260507020726 | 61 | 112 | 0.9 | 3.5 | 0.00 | 0.00 | 0.00 | 77 | 1019.9 |
| 20260507015215 | 62 | 129 | 0.0 | 4.3 | 0.00 | 0.00 | 0.00 | 77 | 1020.1 |
| 20260507013718 | 63 | 66 | 0.9 | 3.5 | 0.00 | 0.00 | 0.00 | 75 | 1020.1 |
| 20260507012217 | 64 | 328 | 1.7 | 4.3 | 0.00 | 0.00 | 0.00 | 75 | 1019.9 |
| 20260507010754 | 64 | 116 | 0.9 | 2.6 | 0.00 | 0.00 | 0.00 | 76 | 1019.9 |
| 20260507005220 | 65 | 69 | 0.0 | 5.2 | 0.00 | 0.00 | 0.00 | 76 | 1019.9 |
| 20260507003750 | 65 | 193 | 0.0 | 4.3 | 0.00 | 0.00 | 0.00 | 76 | 1019.8 |
| 20260507002215 | 66 | 110 | 0.9 | 3.5 | 0.00 | 0.00 | 0.00 | 76 | 1019.8 |
| 20260507000717 | 66 | 94 | 0.9 | 4.3 | 0.00 | 0.00 | 0.00 | 75 | 1019.8 |
| 20260506235242 | 66 | 137 | 0.9 | 2.6 | 0.00 | 0.00 | 0.00 | 73 | 1019.8 |
| 20260506233734 | 66 | 149 | 1.7 | 2.6 | 0.00 | 0.00 | 0.00 | 76 | 1019.7 |
| 20260506232250 | 66 | 113 | 1.7 | 4.3 | 0.00 | 0.00 | 0.00 | 73 | 1019.8 |
| 20260506230729 | 67 | 104 | 1.7 | 3.5 | 0.00 | 0.00 | 0.00 | 72 | 1020.1 |
| 20260506225215 | 68 | 97 | 0.0 | 2.6 | 0.00 | 0.00 | 0.00 | 73 | 1020.2 |
| 20260506223735 | 68 | 96 | 0.9 | 3.5 | 0.00 | 0.00 | 0.00 | 70 | 1020.3 |
| 20260506222220 | 68 | 52 | 0.9 | 2.6 | 0.00 | 0.00 | 0.00 | 72 | 1020.3 |
| 20260506220720 | 68 | 306 | 0.9 | 3.5 | 0.00 | 0.00 | 0.00 | 71 | 1020.3 |
| 20260506215225 | 68 | 241 | 0.9 | 4.3 | 0.00 | 0.00 | 0.00 | 69 | 1020.3 |
| 20260506213801 | 68 | 185 | 2.6 | 7.0 | 0.00 | 0.00 | 0.00 | 72 | 1020.4 |
| 20260506212233 | 68 | 255 | 2.6 | 6.1 | 0.00 | 0.00 | 0.00 | 70 | 1020.6 |
| 20260506210714 | 66 | 243 | 0.0 | 4.3 | 0.00 | 0.00 | 0.00 | 76 | 1020.8 |
| 20260506205230 | 65 | 117 | 0.9 | 3.5 | 0.00 | 0.00 | 0.00 | 76 | 1020.8 |
| 20260506203738 | 65 | 213 | 0.0 | 4.3 | 0.00 | 0.00 | 0.00 | 76 | 1020.7 |
| 20260506202227 | 64 | 141 | 1.7 | 6.1 | 0.00 | 0.00 | 0.00 | 76 | 1020.7 |
| 20260506200725 | 65 | 114 | 1.7 | 4.3 | 0.00 | 0.00 | 0.00 | 77 | 1020.8 |
| 20260506195218 | 62 | 170 | 0.9 | 1.7 | 0.00 | 0.00 | 0.00 | 79 | 1021.1 |
| 20260506193712 | 63 | 244 | 0.9 | 4.3 | 0.00 | 0.00 | 0.00 | 80 | 1021.2 |
| 20260506192217 | 63 | 245 | 0.9 | 3.5 | 0.00 | 0.00 | 0.00 | 78 | 1020.9 |
| 20260506190725 | 62 | 88 | 0.0 | 1.7 | 0.00 | 0.00 | 0.00 | 80 | 1020.9 |
| 20260506185217 | 62 | 100 | 0.9 | 3.5 | 0.00 | 0.00 | 0.00 | 80 | 1020.8 |
| 20260506183715 | 62 | 110 | 0.9 | 3.5 | 0.00 | 0.00 | 0.00 | 80 | 1020.8 |
| 20260506182222 | 61 | 264 | 2.6 | 3.5 | 0.00 | 0.00 | 0.00 | 81 | 1020.8 |
| 20260506180719 | 60 | 234 | 0.0 | 2.6 | 0.00 | 0.00 | 0.00 | 84 | 1020.9 |
| 20260506175239 | 58 | 147 | 0.0 | 1.7 | 0.00 | 0.00 | 0.00 | 86 | 1020.9 |
| 20260506173723 | 58 | 145 | 0.0 | 1.7 | 0.00 | 0.00 | 0.00 | 86 | 1020.7 |
| 20260506172215 | 57 | 144 | 0.0 | 1.7 | 0.00 | 0.00 | 0.00 | 88 | 1020.7 |
| 20260506170719 | 57 | 85 | 0.0 | 1.7 | 0.00 | 0.00 | 0.00 | 89 | 1020.7 |
| 20260506165222 | 56 | 43 | 0.0 | 1.7 | 0.00 | 0.00 | 0.00 | 89 | 1020.7 |
| 20260506163714 | 56 | 118 | 0.0 | 0.0 | 0.00 | 0.00 | 0.00 | 89 | 1020.8 |
| 20260506162215 | 56 | 118 | 0.0 | 1.7 | 0.00 | 0.00 | 0.00 | 89 | 1020.5 |
| 20260506160728 | 56 | 118 | 0.9 | 2.6 | 0.00 | 0.00 | 0.00 | 90 | 1020.3 |
| 20260506155243 | 55 | 111 | 1.7 | 4.3 | 0.00 | 0.00 | 0.00 | 89 | 1020.0 |